CST,Max TemperatureF,Mean TemperatureF,Min TemperatureF,Max Dew PointF,MeanDew PointF,Min DewpointF,Max Humidity, Mean Humidity, Min Humidity, Max Sea Level PressureIn, Mean Sea Level PressureIn, Min Sea Level PressureIn, Max VisibilityMiles, Mean VisibilityMiles, Min VisibilityMiles, Max Wind SpeedMPH, Mean Wind SpeedMPH, Max Gust SpeedMPH,PrecipitationIn, CloudCover, Events, WindDirDegrees
2011-11-1,68,50,32,41,34,28,100,71,23,30.33,30.27,30.23,10,10,7,8,0,,0.00,0,,172
2011-11-2,68,52,35,41,36,34,100,59,30,30.35,30.25,30.15,10,10,10,14,3,18,0.00,0,,150
2011-11-3,55,50,44,55,43,34,100,76,47,30.15,30.00,29.87,10,9,2,24,10,31,0.21,6,Rain,192
2011-11-4,53,47,41,46,43,39,100,89,72,30.17,30.09,29.98,10,9,3,12,7,18,0.00,6,Rain,348
2011-11-5,66,50,35,52,42,36,100,75,43,30.26,30.20,30.17,10,6,0,13,3,18,0.00,2,Fog,142
2011-11-6,64,54,44,46,39,32,87,59,48,30.39,30.31,30.26,10,10,10,16,11,25,0.00,0,,145
2011-11-7,71,56,42,52,48,41,100,72,46,30.35,30.29,30.23,10,10,10,10,3,16,0.00,2,,148
2011-11-8,73,58,44,52,50,45,100,70,47,30.22,30.15,30.07,10,10,10,13,4,18,0.00,4,,148
2011-11-9,64,55,44,61,52,41,100,78,63,30.12,30.04,30.00,10,9,2,15,9,24,0.01,5,Rain,197
2011-11-10,53,43,33,36,30,19,100,62,28,30.21,30.15,30.11,10,10,10,17,7,24,0.00,0,,323
2011-11-11,57,42,26,32,28,23,100,64,33,30.25,30.19,30.13,10,10,10,10,2,,0.00,0,,195
2011-11-12,60,48,37,34,32,30,81,48,34,30.26,30.19,30.15,10,10,10,16,7,24,0.00,0,,179
2011-11-13,73,64,55,54,47,32,68,56,41,30.13,30.05,29.95,10,10,10,24,14,32,0.00,4,Rain,181
2011-11-14,73,68,62,64,62,59,88,81,69,30.04,29.98,29.92,10,10,10,20,12,32,0.00,7,,184
2011-11-15,69,66,62,66,65,61,100,93,88,29.94,29.89,29.84,10,10,5,13,9,20,0.04,7,Rain,178
2011-11-16,68,57,46,66,58,45,100,94,87,30.01,29.84,29.73,10,9,0,18,8,28,0.53,8,Rain-Thunderstorm,6
2011-11-17,50,42,35,36,27,19,87,59,34,30.34,30.24,30.07,10,10,4,20,12,26,0.00,1,Rain,355
2011-11-18,55,39,23,30,26,21,100,61,31,30.41,30.33,30.24,10,10,10,16,3,21,0.00,0,,144
2011-11-19,64,54,44,54,39,27,72,56,49,30.28,30.23,30.16,10,10,10,16,9,23,0.00,6,,147
2011-11-20,68,64,59,63,57,54,100,84,73,30.28,30.23,30.20,10,10,5,15,6,21,0.05,8,Rain-Thunderstorm,169
2011-11-21,68,64,59,64,62,59,100,92,83,30.26,30.20,30.10,10,7,2,10,3,16,0.00,6,Thunderstorm,176
2011-11-22,68,62,57,63,60,55,100,93,64,30.09,29.99,29.86,10,8,1,18,5,24,0.26,6,Rain-Thunderstorm,186
2011-11-23,57,47,37,55,45,37,100,86,76,30.32,30.20,30.00,10,9,4,14,9,20,0.00,7,Rain,347
2011-11-24,59,47,35,43,40,36,100,86,45,30.39,30.34,30.31,10,7,3,7,2,,0.00,3,,353
2011-11-25,64,48,32,41,37,32,100,65,37,30.35,30.27,30.18,10,10,4,10,3,18,0.00,0,,149
2011-11-26,69,56,44,54,49,43,93,67,46,30.21,30.13,30.01,10,10,10,18,6,28,0.00,4,,151
2011-11-27,64,53,42,59,55,43,100,95,68,29.96,29.92,29.88,10,7,2,18,11,25,1.02,8,Rain,178
2011-11-28,42,38,35,43,40,34,100,98,93,29.90,29.78,29.71,10,6,1,16,9,20,0.13,8,Rain,290
2011-11-29,35,34,33,36,34,32,100,98,93,30.05,29.86,29.76,10,7,2,12,8,17,0.00,8,Rain-Snow,235
2011-11-30,44,38,32,36,34,32,100,84,61,30.20,30.13,30.05,10,10,7,9,5,10,0.00,4,,310